Nellis AFB, NV

2:11 PM PDT on April 20, 2018 (GMT -0700)
Nellis Air Force Base

Weather History for KLSV - November, 2012

Change the Weather History Date:

Sunday, November 4, 2012

  Actual Average Record
Temperature  
Mean Temperature 63 °F -  
Max Temperature 81 °F 69 °F 85 °F (2010)
Min Temperature 47 °F 45 °F 37 °F (2003)
Degree Days  
Heating Degree Days 2    
Growing Degree Days 13 (Base 50)    
Moisture  
Dew Point 27 °F    
Average Humidity 27    
Maximum Humidity 44    
Minimum Humidity 14    
Precipitation  
Precipitation 0.00 in - - ()
Sea Level Pressure  
Sea Level Pressure 30.20 in    
Wind  
Wind Speed 2 mph (NE)    
Max Wind Speed 9 mph    
Max Gust Speed -    
Visibility 10 miles    
Events      
Averages and records for this station are not official NWS values.
T = Trace of Precipitation, MM = Missing Value Source: NWS Daily Summary

Daily Weather History Graph

Daily Weather History Graph

Search for Another Location

Airport or City:

Astronomy

Nov. 04, 2012 Rise Set
Actual Time 6:06 AM PST 4:40 PM PST
Civil Twilight 5:39 AM PST 5:07 PM PST
Nautical Twilight 5:09 AM PST 5:37 PM PST
Astronomical Twilight 4:39 AM PST 6:07 PM PST
Moon 9:23 PM PST (11/4) 10:51 AM PST (11/4)
Length of Visible Light 11h 27m
Length of Day
10h 33m
Waning Gibbous, 71% of the Moon is Illuminated
Nov 4
Waning Gibbous
Nov 6
Last Quarter
Nov 13
New
Nov 20
First Quarter
Nov 28
Full

Hourly Weather History & Observations

Time (PST) Temp. Dew Point Humidity Pressure Visibility Wind Dir Wind Speed Gust Speed Precip Events Conditions
12:55 AM 56.5 °F 25.3 °F 30% 30.15 in 10.0 mi Calm Calm - N/A   Clear
1:55 AM 55.6 °F 25.2 °F 31% 30.16 in 10.0 mi North 4.6 mph - N/A   Clear
1:55 AM 53.6 °F 26.8 °F 36% 30.16 in 10.0 mi Calm Calm - N/A   Clear
2:55 AM 49.8 °F 26.1 °F 40% 30.17 in 10.0 mi NE 3.5 mph - N/A   Clear
3:55 AM 50.4 °F 26.4 °F 39% 30.18 in 10.0 mi Calm Calm - N/A   Clear
4:55 AM 50.5 °F 26.6 °F 39% 30.20 in 10.0 mi Calm Calm - N/A   Clear
5:55 AM 48.7 °F 26.4 °F 42% 30.22 in 10.0 mi Calm Calm - N/A   Clear
6:55 AM 47.8 °F 26.6 °F 44% 30.25 in 10.0 mi Calm Calm - N/A   Clear
7:55 AM 55.2 °F 26.4 °F 33% 30.27 in 10.0 mi Calm Calm - N/A   Clear
8:55 AM 59.0 °F 28.8 °F 32% 30.26 in 10.0 mi Calm Calm - N/A   Clear
9:55 AM 67.3 °F 28.0 °F 23% 30.25 in 10.0 mi Calm Calm - N/A   Clear
10:55 AM 70.9 °F 28.4 °F 21% 30.23 in 10.0 mi Calm Calm - N/A   Clear
11:55 AM 77.0 °F 26.4 °F 15% 30.20 in 10.0 mi East 9.2 mph - N/A   Clear
12:55 PM 78.3 °F 27.5 °F 15% 30.17 in 10.0 mi East 3.5 mph - N/A   Clear
1:55 PM 78.8 °F 26.2 °F 14% 30.17 in 10.0 mi Calm Calm - N/A   Clear
2:55 PM 79.2 °F 27.0 °F 15% 30.16 in 10.0 mi Calm Calm - N/A   Clear
3:55 PM 78.4 °F 29.1 °F 16% 30.15 in 10.0 mi South 3.5 mph - N/A   Clear
4:55 PM 76.8 °F 27.9 °F 16% 30.15 in 10.0 mi Calm Calm - N/A   Clear
5:55 PM 67.1 °F 30.7 °F 26% 30.18 in 10.0 mi North 4.6 mph - N/A   Clear
6:55 PM 65.3 °F 28.6 °F 25% 30.19 in 10.0 mi Calm Calm - N/A   Clear
7:55 PM 64.0 °F 28.6 °F 26% 30.19 in 10.0 mi NNE 3.5 mph - N/A   Clear
8:55 PM 61.3 °F 27.1 °F 27% 30.21 in 10.0 mi NE 8.1 mph - N/A   Clear
9:55 PM 64.9 °F 27.7 °F 25% 30.20 in 10.0 mi East 8.1 mph - N/A   Clear
10:55 PM 62.4 °F 27.1 °F 26% 30.21 in 10.0 mi Calm Calm - N/A   Clear